Weather History for Yuma MCAS, AZ

Change the Weather History Date:

Thursday, February 7, 2013

  Actual Average Record
Temperature  
Mean Temperature 63 °F 61 °F  
Max Temperature 75 °F 72 °F 91 °F (1963)
Min Temperature 50 °F 49 °F 28 °F (1899)
Degree Days  
Heating Degree Days 2 5  
Month to date heating degree days 5 35  
Since 1 July heating degree days 526 543  
Cooling Degree Days 0 1  
Month to date cooling degree days 3 6  
Year to date cooling degree days 6 12  
Growing Degree Days 12 (Base 50)    
Moisture  
Dew Point 39 °F    
Average Humidity 46    
Maximum Humidity 77    
Minimum Humidity 14    
Precipitation  
Precipitation 0.00 in 0.01 in 0.57 in (2009)
Month to date precipitation T 0.09  
Year to date precipitation 1.02 0.46  
Sea Level Pressure  
Sea Level Pressure 29.99 in    
Wind  
Wind Speed 4 mph (South)    
Max Wind Speed 10 mph    
Max Gust Speed 12 mph    
Visibility 10 miles    
Events      
T = Trace of Precipitation, MM = Missing Value Source: NWS Daily Summary

Daily Weather History Graph

Daily Weather History Graph

Search for Another Location

Airport:

Trip Planner

Search our weather history database for the weather conditions in past years. The results will help you decide how hot, cold, wet, or windy it might be!

Date:

Astronomy

Feb. 07, 2013 Rise Set
Actual Time 7:28 AM MST 6:17 PM MST
Civil Twilight 7:02 AM MST 6:42 PM MST
Nautical Twilight 6:33 AM MST 7:11 PM MST
Astronomical Twilight 6:04 AM MST 7:40 PM MST
Moon 5:06 AM MST (2/7) 3:50 PM MST (2/7)
Length of Visible Light 11h 39m
Length of Day
10h 48m
Waning Crescent, 8% of the Moon is Illuminated
Feb 7
Waning Crescent
Feb 10
New
Feb 17
First Quarter
Feb 25
Full
Mar 4
Last Quarter

Hourly Weather History & Observations

Time (MST) Temp. Dew Point Humidity Pressure Visibility Wind Dir Wind Speed Gust Speed Precip Events Conditions
12:55 AM 55.0 °F 46.0 °F 72% 30.02 in 10.0 mi Calm Calm - N/A   Clear
1:55 AM 54.0 °F 45.0 °F 72% 30.02 in 10.0 mi South 3.5 mph - N/A   Clear
2:55 AM 55.0 °F 45.0 °F 69% 30.02 in 10.0 mi Calm Calm - N/A   Clear
3:55 AM 53.1 °F 45.0 °F 74% 30.02 in 10.0 mi Calm Calm - N/A   Clear
4:55 AM 52.0 °F 44.1 °F 74% 30.02 in 10.0 mi Calm Calm - N/A   Clear
5:55 AM 50.0 °F 43.0 °F 77% 30.03 in 10.0 mi Calm Calm - N/A   Clear
6:55 AM 51.1 °F 44.1 °F 77% 30.04 in 10.0 mi Calm Calm - N/A   Clear
7:55 AM 51.1 °F 45.0 °F 80% 30.05 in 10.0 mi Calm Calm - N/A   Clear
8:55 AM 55.9 °F 44.1 °F 64% 30.07 in 10.0 mi ENE 5.8 mph - N/A   Clear
9:55 AM 60.1 °F 46.0 °F 60% 30.07 in 10.0 mi NNE 4.6 mph - N/A   Clear
10:55 AM 64.9 °F 45.0 °F 48% 30.06 in 10.0 mi NNE 3.5 mph - N/A   Clear
11:55 AM 69.1 °F 44.1 °F 40% 30.06 in 10.0 mi Calm Calm - N/A   Clear
12:55 PM 71.1 °F 37.9 °F 30% 30.03 in 10.0 mi Calm Calm - N/A   Clear
1:55 PM 73.0 °F 39.0 °F 29% 30.00 in 10.0 mi SW 6.9 mph - N/A   Clear
2:55 PM 75.0 °F 27.0 °F 17% 29.97 in 10.0 mi Variable 4.6 mph - N/A   Clear
3:55 PM 75.0 °F 23.0 °F 14% 29.94 in 10.0 mi WSW 3.5 mph - N/A   Clear
4:55 PM 75.0 °F 27.0 °F 17% 29.94 in 10.0 mi SSW 8.1 mph - N/A   Partly Cloudy
5:55 PM 73.0 °F 30.0 °F 20% 29.93 in 10.0 mi SSW 4.6 mph - N/A   Partly Cloudy
6:55 PM 68.0 °F 37.9 °F 33% 29.92 in 10.0 mi South 5.8 mph - N/A   Partly Cloudy
7:55 PM 64.0 °F 37.0 °F 37% 29.92 in 10.0 mi SSW 6.9 mph - N/A   Partly Cloudy
8:55 PM 60.1 °F 37.9 °F 44% 29.91 in 10.0 mi South 5.8 mph - N/A   Partly Cloudy
9:55 PM 60.1 °F 37.0 °F 42% 29.91 in 10.0 mi SSE 6.9 mph - N/A   Scattered Clouds
10:55 PM 57.0 °F 36.0 °F 45% 29.90 in 10.0 mi SSE 6.9 mph - N/A   Mostly Cloudy
11:55 PM 57.9 °F 37.9 °F 47% 29.88 in 10.0 mi SSE 10.4 mph - N/A   Mostly Cloudy